Location: Unspecified
(0.0000°N, 0.0000°E)
Time: 07:10:04
(UTC+00:00)

LEMUR 2 GREENBERG - Pass Details

Date: 18 January 2026
Orbit: 478 x 492 km, 97.4° (Epoch: 10 February)

Event Time Altitude Azimuth Distance (km) Brightness Sun altitude
Rises 04:42:50 0° 142° (SE) 2,579 ? -20.4°
Maximum altitude 04:47:54 17° 79° (E) 1,308 ? -19.2°
Drops below altitude 10° 04:50:20 10° 37° (NE) 1,687 ? -18.7°
Sets 04:52:56 0° 16° (NNE) 2,564 ? -18.1°
